Location: Newark
(71.5000°N, 176.1997°W)
Time: 12:42:41
(UTC+00:00)

Envisat - Visible Passes

Search period start: 15 December 2019 00:00
Search period end: 25 December 2019 00:00
Orbit: 764 x 766 km, 98.1° (Epoch: 15 December)

Date Brightness Start Highest point End Pass type
(mag) Time Alt. Az. Time Alt. Az. Time Alt. Az.
15 Dec 3.8 01:21:37 10° ENE 01:25:59 30° NNE 01:30:22 10° NW visible
15 Dec 3.2 02:59:26 10° ESE 03:04:18 47° NE 03:09:11 10° NNW visible
15 Dec 3.0 04:38:05 10° SSE 04:43:12 84° WSW 04:48:21 10° NNW visible
15 Dec 4.6 06:18:15 10° SSW 06:22:53 34° W 06:27:33 10° NNW visible
15 Dec 6.0 08:00:52 10° W 08:03:30 14° WNW 08:06:08 10° NW visible
15 Dec 6.0 16:31:21 10° NE 16:34:17 15° ENE 16:37:12 10° ESE visible
15 Dec 4.6 18:10:04 10° NNE 18:14:49 37° E 18:19:32 10° SSE visible
15 Dec 3.0 19:49:17 10° NNE 19:54:25 90° ESE 19:59:32 10° SSW visible
15 Dec 3.3 21:28:25 10° NNE 21:33:15 44° NW 21:38:04 10° WSW visible
16 Dec 3.5 02:23:04 10° E 02:27:44 38° NNE 02:32:26 10° NNW visible
16 Dec 2.9 04:01:19 10° SE 04:06:24 73° NE 04:11:30 10° NNW visible
16 Dec 4.0 05:40:50 10° S 05:45:46 48° W 05:50:44 10° NNW visible
16 Dec 5.6 07:22:22 10° WSW 07:26:01 19° WNW 07:29:42 10° NNW visible
16 Dec 6.2 15:55:32 10° NE 15:56:42 11° ENE 15:57:53 10° ENE visible
16 Dec 5.2 17:33:18 10° NNE 17:37:36 26° E 17:41:53 10° SE visible
16 Dec 3.4 19:12:26 10° NNE 19:17:32 66° ESE 19:22:36 10° SSW visible
16 Dec 3.1 20:51:38 10° NNE 20:56:38 56° NW 21:01:37 10° SW visible
17 Dec 3.7 01:46:45 10° E 01:51:15 32° NNE 01:55:45 10° NW visible
17 Dec 3.1 03:24:43 10° ESE 03:29:42 55° NE 03:34:41 10° NNW visible
17 Dec 3.3 05:03:42 10° SSE 05:08:47 67° WSW 05:13:53 10° NNW visible
17 Dec 5.1 06:44:23 10° SW 06:48:42 27° W 06:53:02 10° NNW visible
17 Dec 6.2 08:28:14 10° WNW 08:29:34 11° WNW 08:30:54 10° NW visible
17 Dec 5.7 16:56:38 10° NNE 17:00:16 19° ENE 17:03:52 10° ESE visible
17 Dec 4.1 18:35:36 10° NNE 18:40:32 47° E 18:45:27 10° S visible
17 Dec 2.9 20:14:49 10° NNE 20:19:55 74° WNW 20:25:01 10° SW visible
17 Dec 3.5 21:53:53 10° NNE 21:58:35 38° NNW 22:03:16 10° W visible
18 Dec 3.8 01:10:28 10° ENE 01:14:48 29° NNE 01:19:09 10° NW visible
18 Dec 3.3 02:48:17 10° ESE 02:53:05 44° NE 02:57:54 10° NNW visible
18 Dec 3.0 04:26:47 10° SSE 04:31:54 89° ENE 04:37:02 10° NNW visible
18 Dec 4.5 06:06:45 10° SSW 06:11:29 37° W 06:16:15 10° NNW visible
18 Dec 5.9 07:49:00 10° WSW 07:52:00 15° WNW 07:54:59 10° NW visible
18 Dec 6.0 16:20:13 10° NE 16:22:47 14° ENE 16:25:21 10° E visible
18 Dec 4.8 17:58:47 10° NNE 18:03:24 33° E 18:08:02 10° SSE visible
18 Dec 3.1 19:37:58 10° NNE 19:43:07 82° ESE 19:48:14 10° SSW visible
18 Dec 3.3 21:17:08 10° NNE 21:22:01 47° NW 21:26:53 10° WSW visible
19 Dec 3.5 02:11:55 10° E 02:16:32 36° NNE 02:21:10 10° NW visible
19 Dec 2.9 03:50:04 10° SE 03:55:07 67° NE 04:00:12 10° NNW visible
19 Dec 3.8 05:29:25 10° S 05:34:24 53° WSW 05:39:26 10° NNW visible
19 Dec 5.4 07:10:41 10° SW 07:14:34 21° W 07:18:27 10° NNW visible
19 Dec 5.3 17:22:02 10° NNE 17:26:10 24° E 17:30:17 10° SE visible
19 Dec 3.6 19:01:08 10° NNE 19:06:12 60° ESE 19:11:15 10° S visible
19 Dec 3.0 20:40:20 10° NNE 20:45:23 61° NW 20:50:24 10° SW visible
20 Dec 3.7 01:35:37 10° E 01:40:04 31° NNE 01:44:31 10° NW visible
20 Dec 3.1 03:13:31 10° ESE 03:18:27 51° NE 03:23:24 10° NNW visible
20 Dec 3.2 04:52:21 10° SSE 04:57:27 74° WSW 05:02:34 10° NNW visible
20 Dec 4.9 06:32:48 10° SSW 06:37:16 30° W 06:41:45 10° NNW visible
20 Dec 6.1 08:16:02 10° W 08:18:02 12° WNW 08:20:02 10° NW visible
20 Dec 5.8 16:45:25 10° NNE 16:48:47 17° ENE 16:52:09 10° ESE visible
20 Dec 4.3 18:24:17 10° NNE 18:29:09 42° E 18:34:00 10° S visible
20 Dec 3.0 20:03:31 10° NNE 20:08:38 81° WNW 20:13:45 10° SW visible
20 Dec 3.4 21:42:37 10° NNE 21:47:22 40° NW 21:52:07 10° WSW visible
21 Dec 3.8 00:59:20 10° ENE 01:03:38 28° NNE 01:07:56 10° NW visible
21 Dec 3.4 02:37:06 10° ESE 02:41:51 41° NE 02:46:37 10° NNW visible
21 Dec 2.9 04:15:30 10° SE 04:20:36 82° ENE 04:25:44 10° NNW visible
21 Dec 4.3 05:55:16 10° SSW 06:00:06 41° W 06:04:57 10° NNW visible
21 Dec 5.7 07:37:13 10° WSW 07:40:30 17° WNW 07:43:48 10° NNW visible
21 Dec 6.1 16:09:09 10° NE 16:11:15 12° ENE 16:13:22 10° E visible
21 Dec 4.9 17:47:30 10° NNE 17:52:01 30° E 17:56:29 10° SSE visible
21 Dec 3.2 19:26:40 10° NNE 19:31:48 75° ESE 19:36:54 10° SSW visible
21 Dec 3.2 21:05:51 10° NNE 21:10:47 51° NW 21:15:42 10° WSW visible
22 Dec 3.6 02:00:46 10° E 02:05:20 34° NNE 02:09:55 10° NW visible
22 Dec 3.0 03:38:50 10° SE 03:43:52 62° NE 03:48:54 10° NNW visible
22 Dec 3.6 05:18:01 10° S 05:23:03 58° WSW 05:28:07 10° NNW visible
22 Dec 5.3 06:59:02 10° SW 07:03:07 24° W 07:07:12 10° NNW visible
22 Dec 5.5 17:10:46 10° NNE 17:14:42 22° E 17:18:38 10° SE visible
22 Dec 3.8 18:49:49 10° NNE 18:54:51 54° ESE 18:59:51 10° S visible
22 Dec 3.0 20:29:03 10° NNE 20:34:07 66° NW 20:39:10 10° SW visible
22 Dec 3.6 22:08:04 10° NE 22:12:41 36° NNW 22:17:18 10° W visible
23 Dec 3.8 01:24:29 10° ENE 01:28:52 30° NNE 01:33:16 10° NW visible
23 Dec 3.2 03:02:20 10° ESE 03:07:13 48° NE 03:12:06 10° NNW visible
23 Dec 3.1 04:41:01 10° SSE 04:46:08 81° WSW 04:51:17 10° NNW visible
23 Dec 4.7 06:21:16 10° SSW 06:25:52 33° W 06:30:28 10° NNW visible
23 Dec 6.0 08:04:02 10° W 08:06:31 13° WNW 08:08:59 10° NW visible
23 Dec 5.9 16:34:13 10° NNE 16:37:17 16° ENE 16:40:21 10° ESE visible
23 Dec 4.5 18:12:59 10° NNE 18:17:46 38° E 18:22:32 10° SSE visible
23 Dec 3.0 19:52:12 10° NNE 19:57:21 88° WNW 20:02:28 10° SSW visible
23 Dec 3.4 21:31:21 10° NNE 21:36:09 43° NW 21:40:57 10° WSW visible
24 Dec 3.5 02:25:57 10° E 02:30:38 39° NNE 02:35:21 10° NNW visible
24 Dec 2.9 04:04:14 10° SE 04:09:19 76° ENE 04:14:26 10° NNW visible
24 Dec 4.1 05:43:49 10° S 05:48:43 46° W 05:53:39 10° NNW visible
24 Dec 5.6 07:25:28 10° WSW 07:29:01 19° WNW 07:32:36 10° NNW visible
24 Dec 6.2 15:58:14 10° NE 15:59:44 11° ENE 16:01:14 10° ENE visible
24 Dec 5.1 17:36:13 10° NNE 17:40:35 27° E 17:44:55 10° SE visible
24 Dec 3.4 19:15:22 10° NNE 19:20:29 68° ESE 19:25:34 10° SSW visible
24 Dec 3.1 20:54:33 10° NNE 20:59:32 55° NW 21:04:30 10° WSW visible
